Vertical_Velocity
2 -4 2 -0 9 31 3 -3 -20 9 2 -5 -8 -7 0 2 -1 -1 1 3 2 2 3 0 1 3 1 2 -2 -0 1 3 6 -1 5 -0 2 3 -2 2 -2 1 0
-1 0 -0 2 5 -20 3 20 51 7 6 -1 4 1 3 6 10 -1 4 4 1 -1 4 3 -2 -1 -0 1 3 2 2 2 1 1 -1 3 -0 0 -0 1 0 -1 -0
15 -7 -9 6 -0 -3 -0 -14 20 12 -9 3 -1 2 0 1 1 -9 -2 7 3 -3 8 1 -0 3 -3 2 -1 3 1 -1 4 3 1 3 2 2 0 1 2 2 -1
-2 -1 6 1 4 6 8 19 5 -3 -8 3 -0 8 3 10 8 4 8 7 8 5 1 3 -5 2 3 1 3 4 2 3 7 1 3 -1 6 2 2 2 1 4 3
2 2 -6 -2 1 3 4 6 8 33 0 15 4 3 3 3 3 -6 6 0 7 6 -5 2 -1 -1 5 3 -1 3 4 3 0 3 0 2 5 3 4 1 2 2 3
3 5 6 -3 -6 -2 3 -1 -1 1 6 4 4 6 6 8 -2 -3 -2 1 4 5 1 3 0 4 -2 6 1 5 -1 2 1 2 -0 3 1 4 2 0 3 2 0
1 4 -6 12 6 5 -5 -2 -3 3 3 -10 7 9 5 6 4 7 0 4 1 3 1 1 -1 6 2 3 3 4 -1 -0 4 2 5 -0 -1 1 5 -2 2 1 4
-2 -0 6 0 5 11 3 -2 -8 10 10 18 2 6 2 0 -6 -4 4 3 3 2 6 4 1 2 0 1 2 3 -2 -1 1 1 5 4 -0 -0 -1 12 8 -2 -0
-1 3 -1 0 -2 -3 -4 -3 9 0 -1 -9 -6 -3 2 -0 20 13 10 -2 -2 1 6 0 -3 -0 0 2 2 3 1 2 3 4 -0 0 5 2 -2 -5 2 2 -1
6 2 8 1 3 2 1 2 -2 1 6 7 11 -5 12 3 10 -6 -5 8 5 2 3 -1 5 6 -1 3 4 4 1 1 0 -2 7 -1 -2 2 2 5 9 1 1
-2 -1 5 4 4 3 1 2 2 -0 -1 -3 1 4 3 3 3 -1 3 2 -7 7 -1 -6 -4 -7 -4 4 -1 3 4 2 5 3 0 3 -0 -6 2 1 5 3 4
1 -0 2 1 -1 3 5 5 5 4 1 3 7 5 4 3 3 -2 1 -1 1 -1 -0 -1 -7 -0 4 15 8 -0 12 -4 -8 -1 -2 4 8 -4 1 1 4 2 8
4 2 1 5 2 -1 -2 -1 0 0 1 2 -2 -2 -2 -4 -1 -1 2 0 -1 -1 -1 1 1 4 3 4 4 13 -2 3 1 -9 -6 -7 1 6 -1 1 4 7 3
4 4 4 3 1 1 -3 -0 1 0 -2 -3 -2 -1 -1 0 2 -1 -4 -3 1 -0 -1 1 5 3 -0 1 2 5 4 -6 -1 2 3 -0 -18 -4 5 1 4 5 1
2 3 6 4 1 6 4 -2 -5 -3 0 1 0 -2 -2 -2 -2 -4 -2 -1 -3 -1 -4 -3 -1 2 -3 6 0 -0 -1 1 4 -3 -3 3 4 -6 -15 -7 -2 -10 -19
4 1 2 3 6 2 2 -3 -2 -2 -1 -2 -3 -4 -4 -3 -2 -1 1 1 1 2 3 -2 -5 3 -1 0 -3 22 6 1 2 -11 10 -11 7 9 6 -2 -2 4 2
2 4 3 5 -1 -2 7 9 5 -2 -7 -3 -3 -4 -4 -2 -2 -2 -2 -2 0 -2 -1 -2 -2 0 -5 8 26 6 1 -0 -2 1 -0 -2 1 6 4 -1 6 6 0
1 -3 -4 -0 -18 -8 -14 3 0 2 3 -3 -1 0 1 -2 -1 -0 -2 -3 -2 0 2 -1 0 -0 -2 3 -6 4 3 -3 15 -6 -2 0 -2 1 5 -3 -5 2 -3
6 4 -3 -1 -1 -2 -3 -8 -4 2 5 1 -1 -1 0 1 2 2 1 1 1 1 2 2 1 1 0 -4 -1 3 5 -7 3 2 1 5 2 5 3 -0 2 8 5
3 -13 -12 -7 -8 -8 -6 -1 1 3 -0 -6 -3 -3 -4 -2 -1 1 3 1 -1 -0 0 -0 -1 0 -0 -1 1 -0 0 3 1 3 4 1 -2 3 2 3 -0 -1 7
0 -1 -1 -4 -2 -1 -7 -4 -2 -2 -3 -4 -2 -0 0 -1 -2 -1 -0 -0 -2 -2 -2 -2 -1 -1 2 -1 -2 -0 -3 3 -1 -0 3 4 -1 6 4 -1 -0 2 1
2 -0 -1 -2 -1 -1 9 4 -1 -7 -4 -5 -5 -4 -1 2 -2 -1 -0 -1 -2 -2 -2 -3 -3 1 2 1 -4 2 6 3 3 6 5 1 4 -0 1 3 -2 -1 -0
-1 1 -0 -3 1 -4 8 2 0 -1 -1 -6 -5 -4 -2 1 -2 -2 -0 -1 -0 0 -1 2 -3 1 2 2 3 7 3 5 4 1 -0 1 2 6 0 -1 2 -0 -1
-5 -5 -4 3 2 5 -2 -6 -2 -4 1 1 -1 -4 -2 1 0 -4 -2 -1 0 -1 -1 4 6 3 0 2 3 1 2 1 -1 -4 -1 4 4 0 -1 1 -1 1 1
-1 1 -3 -3 -4 -0 1 -3 0 -3 -4 -1 0 0 -1 -0 -3 -2 -3 -1 -2 1 4 -1 1 4 5 -2 4 8 5 3 2 -2 4 5 2 1 -0 1 -2 0 0
1 1 -2 2 -1 -1 1 -2 -3 -3 -5 -1 2 -1 0 5 -2 -2 -3 -4 -1 -0 4 -1 2 2 0 5 9 7 3 1 -1 4 3 1 2 0 1 2 0 -0 -1
Height
3044 3043 3044 3043 3041 3030 3030 3054 3064 3076 3083 3089 3097 3103 3110 3116 3121 3126 3130 3133 3135 3139 3142 3146 3148 3152 3154 3156 3159 3161 3162 3163 3164 3165 3167 3167 3168 3169 3170 3171 3172 3172 3173
3039 3041 3043 3042 3042 3038 3043 3053 3058 3074 3081 3086 3094 3100 3108 3112 3117 3121 3125 3129 3132 3135 3138 3142 3144 3148 3149 3153 3156 3158 3160 3161 3162 3163 3164 3165 3167 3167 3168 3169 3169 3169 3169
3034 3036 3041 3043 3043 3042 3047 3054 3065 3070 3077 3083 3088 3095 3099 3105 3109 3115 3120 3124 3127 3130 3133 3137 3140 3143 3145 3149 3151 3154 3156 3159 3160 3161 3161 3161 3163 3164 3165 3165 3166 3166 3167
3030 3032 3036 3041 3044 3046 3053 3058 3062 3068 3075 3079 3084 3090 3096 3102 3107 3112 3116 3119 3121 3123 3127 3131 3135 3136 3140 3143 3146 3149 3150 3153 3155 3157 3158 3159 3160 3160 3161 3162 3162 3162 3162
3024 3031 3035 3039 3044 3045 3050 3056 3060 3061 3070 3077 3081 3086 3091 3097 3100 3104 3109 3113 3116 3119 3123 3127 3131 3132 3136 3138 3141 3144 3146 3149 3151 3153 3154 3154 3155 3157 3158 3158 3159 3160 3159
3021 3027 3032 3037 3041 3045 3048 3050 3055 3062 3065 3071 3075 3080 3085 3091 3095 3100 3103 3107 3111 3114 3117 3121 3124 3127 3131 3134 3136 3138 3140 3143 3145 3147 3148 3149 3151 3152 3152 3153 3153 3153 3154
3021 3025 3029 3034 3039 3043 3047 3050 3053 3057 3062 3064 3071 3075 3079 3083 3087 3093 3097 3100 3104 3108 3112 3116 3118 3123 3126 3128 3130 3132 3134 3136 3139 3141 3143 3143 3145 3146 3147 3147 3148 3148 3148
3019 3022 3024 3029 3034 3039 3043 3048 3051 3053 3057 3059 3064 3067 3073 3077 3081 3085 3090 3093 3097 3102 3105 3107 3112 3115 3119 3122 3124 3126 3127 3130 3132 3133 3136 3137 3139 3140 3141 3142 3141 3141 3142
3018 3019 3022 3026 3030 3034 3038 3042 3045 3048 3053 3053 3056 3061 3065 3070 3071 3075 3079 3084 3090 3094 3098 3100 3103 3107 3110 3114 3116 3118 3120 3122 3124 3126 3127 3128 3129 3133 3134 3136 3136 3137 3135
3017 3019 3020 3024 3027 3031 3034 3037 3040 3043 3046 3050 3052 3055 3058 3060 3062 3068 3073 3077 3082 3084 3090 3093 3095 3098 3102 3103 3106 3109 3112 3113 3114 3117 3119 3119 3122 3124 3127 3128 3128 3129 3130
3014 3017 3018 3021 3025 3028 3031 3034 3036 3039 3042 3045 3049 3051 3054 3057 3059 3062 3066 3070 3074 3077 3080 3084 3088 3089 3092 3093 3097 3101 3103 3104 3105 3107 3110 3110 3113 3116 3118 3120 3120 3121 3122
3013 3014 3016 3018 3021 3024 3027 3029 3033 3035 3037 3039 3041 3044 3047 3051 3053 3057 3062 3063 3066 3068 3072 3076 3079 3081 3084 3085 3086 3091 3091 3093 3095 3098 3098 3101 3103 3105 3108 3111 3112 3113 3114
3012 3014 3015 3016 3018 3021 3024 3026 3028 3030 3032 3035 3037 3040 3043 3046 3049 3052 3054 3056 3059 3061 3064 3067 3069 3072 3075 3078 3081 3083 3079 3080 3078 3083 3084 3086 3093 3096 3099 3103 3104 3105 3107
3008 3011 3014 3015 3017 3018 3021 3024 3026 3029 3031 3033 3035 3037 3039 3041 3042 3044 3046 3048 3050 3052 3054 3057 3060 3063 3067 3070 3072 3074 3074 3076 3077 3077 3076 3078 3079 3085 3089 3092 3096 3097 3099
3004 3007 3010 3012 3014 3016 3017 3019 3022 3025 3027 3030 3031 3033 3034 3035 3036 3038 3039 3040 3042 3044 3046 3047 3050 3053 3057 3060 3063 3066 3066 3068 3067 3065 3067 3068 3071 3073 3076 3078 3085 3087 3090
2997 3000 3003 3006 3008 3011 3015 3015 3017 3019 3021 3023 3025 3026 3028 3029 3030 3031 3032 3033 3034 3036 3037 3038 3041 3045 3048 3052 3056 3054 3057 3057 3059 3059 3061 3062 3066 3069 3072 3076 3079 3082 3084
2991 2993 2996 2998 3001 3002 3007 3010 3010 3013 3015 3016 3017 3019 3020 3022 3023 3023 3025 3026 3027 3027 3029 3030 3033 3035 3039 3043 3044 3048 3049 3050 3052 3054 3055 3055 3058 3063 3066 3069 3071 3074 3076
2984 2987 2989 2992 2994 2997 3000 3003 3004 3005 3007 3009 3010 3011 3012 3012 3013 3014 3015 3016 3017 3018 3019 3021 3024 3026 3030 3032 3037 3038 3043 3044 3045 3047 3048 3049 3052 3056 3059 3062 3066 3068 3070
2976 2978 2982 2986 2989 2991 2992 2996 2996 2998 3000 3001 3003 3004 3005 3004 3004 3005 3006 3007 3008 3010 3011 3013 3015 3018 3020 3023 3028 3031 3034 3037 3039 3040 3041 3043 3047 3050 3053 3056 3060 3061 3063
2967 2971 2975 2978 2982 2983 2985 2988 2989 2991 2992 2993 2994 2995 2997 2997 2997 2997 2998 2999 3000 3002 3003 3005 3006 3009 3011 3015 3020 3023 3026 3029 3032 3033 3034 3037 3040 3043 3047 3051 3053 3055 3057
2962 2964 2967 2970 2973 2976 2980 2981 2983 2983 2985 2985 2986 2986 2987 2988 2989 2989 2990 2992 2993 2994 2995 2997 2998 3001 3005 3008 3012 3014 3019 3022 3024 3026 3028 3031 3035 3039 3041 3043 3047 3050 3050
2957 2958 2961 2963 2965 2970 2971 2972 2975 2977 2977 2978 2978 2978 2979 2980 2981 2981 2982 2984 2986 2988 2989 2990 2992 2995 2999 3002 3005 3009 3012 3015 3018 3020 3023 3026 3030 3033 3036 3039 3041 3043 3044
2952 2953 2956 2958 2960 2963 2964 2964 2966 2969 2971 2972 2973 2972 2971 2973 2974 2975 2976 2978 2980 2982 2984 2986 2987 2990 2992 2995 2998 3002 3005 3009 3012 3014 3017 3021 3024 3028 3030 3032 3035 3037 3038
2948 2950 2952 2952 2953 2955 2956 2958 2959 2962 2963 2964 2965 2966 2966 2967 2968 2968 2968 2971 2974 2976 2978 2980 2981 2983 2986 2989 2993 2996 2999 3002 3004 3006 3010 3015 3019 3021 3024 3026 3029 3031 3034
2944 2945 2946 2946 2946 2947 2948 2950 2951 2954 2955 2957 2957 2958 2959 2961 2962 2962 2962 2965 2967 2970 2971 2973 2975 2977 2979 2983 2987 2991 2994 2996 2999 3001 3007 3010 3014 3016 3019 3021 3023 3026 3028
2938 2937 2936 2938 2940 2940 2939 2941 2943 2945 2947 2948 2949 2949 2951 2952 2954 2955 2956 2958 2960 2962 2964 2965 2967 2969 2973 2977 2982 2985 2988 2990 2994 2998 3002 3005 3008 3011 3013 3016 3018 3020 3022